(550) Senta
ephemeris date magn radius delta ra dec elong phase
Today18 Jul 202514.72.540 AU3.159 AU04h33m+26°50'44.8°16.4°
Opposition17 Dec 202513.12.873 AU1.889 AU05h44m+24°37'178.4°0.6°
(550) Senta - 2025-07-18
astro.vanbuitenen.nl


 
-1 year
-1 month
-1 day
Now
+1 day
+1 month
+1 year

The interactive orbit chart above shows the body's path through the solar system and its position at the given date. Green and blue lines are shown perpendicular to the ecliptic plane: Green if the path is above the ecliptic plane, blue if it is below. (Left-click and drag to rotate the view; Right-click and drag to move the view; Use scroll wheel to zoom in our out.)

The orbital elements of Senta are:

            e (Eccentricity)                : 0.2220661
            a (Semimajor axis)              : 2.5885514
            i (Inclination)                 : 10.10687
            Ω (Longitude of ascending node) : 270.65941
            ω (Argument of perihelion)      : 45.21240
            M (Mean anomaly)                : 54.95804
            Epoch                           : 2025 May 05

            L (Longitude of perihelion)     : 315.42378
            B (Latitude of perihelion)      : 7.15452
            P (Orbital period in years)     : 4.16            
        

The light curve chart below shows the estimated development of the minor planet's magnitude.


The all-sky chart below shows the path of the minor planet over the same period as the light curve. The current position is marked yellow.





The following chart shows the path of the minor planet in the next few days. The field of view is optimized for (~10x50) binoculars and finderscopes. A more printer-friendly version of the same chart can be found below.




Ephemerides:
Date       Time       RA (2000)    DEC (2000)    delta   radius  elong  phase   PA    magn
2025-07-18 00:00 UT   04 33 33.5   +26 50 49     3.159    2.540   44.8   16.4   266   14.7 
2025-07-18 22:58 UT   04 35 12.6   +26 53 21     3.152    2.542   45.3   16.5   267   14.7 
2025-07-19 00:00 UT   04 35 17.0   +26 53 27     3.152    2.542   45.3   16.5   267   14.7 
2025-07-20 00:00 UT   04 37 00.2   +26 56 01     3.145    2.545   45.9   16.7   267   14.7 
2025-07-21 00:00 UT   04 38 42.9   +26 58 30     3.139    2.547   46.4   16.8   267   14.7 
2025-07-22 00:00 UT   04 40 25.2   +27 00 54     3.132    2.550   47.0   16.9   267   14.8 
2025-07-23 00:00 UT   04 42 07.0   +27 03 14     3.125    2.552   47.6   17.1   267   14.8 
2025-07-24 00:00 UT   04 43 48.4   +27 05 29     3.117    2.554   48.2   17.2   267   14.8 
2025-07-25 00:00 UT   04 45 29.3   +27 07 39     3.110    2.557   48.7   17.4   267   14.8 
2025-07-26 00:00 UT   04 47 09.8   +27 09 45     3.103    2.559   49.3   17.5   267   14.8 
2025-07-27 00:00 UT   04 48 49.7   +27 11 45     3.095    2.562   49.9   17.6   267   14.8 
2025-07-28 00:00 UT   04 50 29.2   +27 13 42     3.088    2.564   50.5   17.8   267   14.8 
2025-07-29 00:00 UT   04 52 08.2   +27 15 34     3.080    2.566   51.0   17.9   267   14.8 
2025-07-30 00:00 UT   04 53 46.7   +27 17 21     3.073    2.569   51.6   18.1   267   14.8 
2025-07-31 00:00 UT   04 55 24.6   +27 19 04     3.065    2.571   52.2   18.2   267   14.8 
2025-08-01 00:00 UT   04 57 02.0   +27 20 42     3.057    2.574   52.8   18.3   267   14.8 
2025-08-02 00:00 UT   04 58 38.9   +27 22 16     3.049    2.576   53.4   18.4   267   14.8 
2025-08-03 00:00 UT   05 00 15.2   +27 23 46     3.041    2.578   54.0   18.6   267   14.8 
2025-08-04 00:00 UT   05 01 51.0   +27 25 12     3.032    2.581   54.6   18.7   268   14.8 
2025-08-05 00:00 UT   05 03 26.2   +27 26 33     3.024    2.583   55.2   18.8   268   14.8 
2025-08-06 00:00 UT   05 05 00.8   +27 27 50     3.016    2.585   55.8   18.9   268   14.8 
2025-08-07 00:00 UT   05 06 34.9   +27 29 03     3.007    2.588   56.4   19.1   268   14.8 
2025-08-08 00:00 UT   05 08 08.4   +27 30 11     2.999    2.590   57.0   19.2   268   14.8 
2025-08-09 00:00 UT   05 09 41.2   +27 31 16     2.990    2.593   57.6   19.3   268   14.8 
2025-08-10 00:00 UT   05 11 13.5   +27 32 17     2.981    2.595   58.2   19.4   268   14.8 


    Terminology:
            
    delta:  distance between minor planet and earth in AU
    radius: distance between minor planet and sun in AU
    magn:   magnitude (brightness) estimate    
    ra:     right ascension in hours (24h = 360deg)
    dec:    declination in degrees
    elong:  elongation in degrees (angle sun-earth-minor planet)    
    phase:  phase angle in degrees (angle sun-minor planet-earth)        
    AU:     Astronomical Unit (mean distance between earth and sun: 149597870.7 km
    

Orbital elements provided by the MPC (Minor Planet Center).
Calculations by a modified version of AAPlus, a C# implementation of the AA+ project by PJ Naughter from the algorithms presented in the book "Astronomical Algorithms" by Jean Meeus.
NGC2000 dso catalog and star labels from VizieR as provided by the Strasbourg astronomical Data Center.
Tycho2 catalog from the ESO archive.